[[{"header":{"parameterUnit":"m.s-1","parameterCategory":1,"la1":30.2991,"la2":30.254,"lo1":-89.0895,"lo2":-89.0444,"dy":0.0017,"dx":0.0017,"nx":28,"ny":28,"refTime":"2025-08-08T09:00:00:Z","depth":0,"parameterNumber":2,"parameterNumberName":"U-component_of_WINDS"},"data":[0,0,0,0,0,0,0,0,0,0,0,0,0,0,0,0,0,0,0,0,0,0,0,0,0,0,0,0,0,0,0,0,0,0,0,0,0,0,0,0,0,0,0,0,0,0,0,0,0,0,0,0,0,0,0,0,0,0,-1.365,-1.3648,0,-1.3529,-1.3527,-1.3526,-1.3406,-1.3404,-1.3403,-1.3401,-1.3281,-1.3279,-1.3278,0,0,0,0,0,0,0,0,0,0,0,0,0,-1.3779,-1.3777,-1.365,-1.3648,-1.3647,-1.3529,-1.3527,-1.3526,-1.3406,-1.3404,-1.3402,-1.34,-1.3282,-1.328,-1.3278,0,0,0,0,0,0,0,0,0,0,0,0,0,-1.3697,-1.3777,-1.365,-1.3573,-1.3565,-1.3529,-1.3527,-1.3525,-1.3406,-1.3404,-1.3402,-1.3399,-1.3282,-1.328,-1.3277,-1.331,0,0,-1.3269,-1.3268,0,0,0,0,0,0,0,0,-1.3702,-1.3693,-1.3586,-1.3578,-1.3569,-1.348,-1.3529,-1.3453,-1.3407,-1.3467,-1.3401,-1.3398,-1.3349,-1.3341,-1.3324,-1.3304,-1.3299,-1.3269,-1.3268,-1.3267,-1.3266,0,0,0,0,0,0,0,-1.3708,-1.3697,-1.3602,-1.3584,-1.3574,-1.3545,-1.3531,-1.3514,-1.3423,-1.3461,-1.3452,-1.3439,-1.3344,-1.3327,-1.332,-1.3297,-1.3269,-1.3267,-1.3265,-1.3264,-1.3297,-1.3299,0,0,0,0,0,0,-1.3725,-1.3703,-1.3606,-1.3598,-1.3631,-1.3544,-1.3528,-1.3511,-1.3423,-1.3407,-1.3442,-1.3434,-1.3332,-1.3323,-1.3316,-1.3346,-1.3267,-1.3264,-1.3263,-1.3294,-1.3297,-1.33,0,0,0,0,0,0,-1.3728,-1.3717,-1.3611,-1.3648,-1.3632,-1.3545,-1.3526,-1.351,-1.3492,-1.3408,-1.3391,-1.344,-1.333,-1.3319,-1.3311,-1.334,-1.3263,-1.3261,-1.3291,-1.3295,-1.3298,-1.3409,0,0,0,0,0,0,-1.3732,-1.3719,-1.373,-1.3649,-1.3631,-1.3608,-1.3528,-1.3509,-1.3487,-1.3477,-1.3402,-1.3387,-1.3327,-1.3316,-1.3309,-1.3335,-1.3259,-1.3288,-1.3293,-1.3297,-1.3402,-1.3416,-1.3428,0,0,0,0,0,-1.3737,-1.3767,-1.3731,-1.372,-1.3642,-1.361,-1.3599,-1.3528,-1.349,-1.35,-1.3446,-1.339,-1.3339,-1.3316,-1.3307,-1.3334,-1.3286,-1.3292,-1.3297,-1.3397,-1.3413,-1.3427,0,0,0,0,0,0,-1.3855,-1.3755,-1.3714,-1.3718,-1.3673,-1.359,-1.36,-1.3548,-1.3514,-1.3506,-1.342,-1.3404,-1.3407,-1.3369,-1.3346,-1.336,-1.3305,-1.3308,-1.3383,-1.3398,-1.3411,-1.3419,-1.3257,0,0,0,0,0,-1.3881,-1.3863,-1.3777,-1.3789,-1.3768,-1.3689,-1.3672,-1.3621,-1.3571,-1.3552,-1.3498,-1.3453,-1.3426,-1.341,-1.3382,-1.3397,-1.3379,-1.3411,-1.3423,-1.3434,-1.3438,-1.3442,-1.3455,-1.3317,-1.3317,-1.3317,0,0,-1.3936,-1.3879,-1.3872,-1.3811,-1.377,-1.3753,-1.3673,-1.3659,-1.3646,-1.355,-1.3538,-1.3498,-1.3442,-1.3445,-1.3444,-1.3415,-1.3472,-1.3441,-1.345,-1.3448,-1.3449,-1.3462,-1.3474,-1.3321,-1.332,-1.332,0,0,-1.4025,-1.3981,-1.3985,-1.3946,-1.3884,-1.3831,-1.3833,-1.3756,-1.3725,-1.3712,-1.3639,-1.3623,-1.358,-1.3542,-1.3518,-1.3594,-1.354,-1.3587,-1.3652,-1.3657,-1.3668,-1.3677,-1.3703,-1.3714,-1.3591,-1.3592,-1.3592,0,-1.4101,-1.4071,-1.3994,-1.3984,-1.3958,-1.3871,-1.3874,-1.384,-1.3774,-1.3758,-1.3726,-1.3669,-1.3625,-1.3618,-1.3636,-1.362,-1.3619,-1.3594,-1.3673,-1.3681,-1.3689,-1.3712,-1.3722,-1.3598,-1.3597,-1.3596,-1.3596,0,-1.4166,-1.4147,-1.4158,-1.4094,-1.407,-1.4067,-1.399,-1.3976,-1.3928,-1.3878,-1.3866,-1.3811,-1.3769,-1.3764,-1.3717,-1.375,-1.3733,-1.3688,-1.3631,-1.3709,-1.373,-1.3738,-1.3606,-1.3604,-1.3602,-1.3601,0,0,-1.4325,-1.4219,-1.4224,-1.4193,-1.4119,-1.4103,-1.4097,-1.4054,-1.4042,-1.4,-1.3992,-1.3957,-1.3914,-1.3887,-1.3835,-1.384,-1.3902,-1.3794,-1.3791,-1.3815,-1.3934,-1.3968,-1.3979,-1.3867,-1.3868,-1.3869,-1.3938,0,-1.4401,-1.4382,-1.4312,-1.4314,-1.4295,-1.4212,-1.4205,-1.416,-1.4114,-1.4092,-1.4042,-1.4017,-1.3964,-1.3946,-1.3948,-1.3895,-1.3925,-1.3889,-1.3858,-1.3858,-1.3873,-1.399,-1.4025,-1.4093,-1.3946,-1.3948,-1.3949,0,-1.4486,-1.4447,-1.4447,-1.4373,-1.4362,-1.4358,-1.4313,-1.4293,-1.424,-1.4206,-1.4175,-1.4117,-1.4106,-1.4054,-1.4037,-1.4014,-1.3998,-1.397,-1.3971,-1.3964,-1.3907,-1.3985,-1.4113,-1.4123,-1.3961,-1.396,-1.3959,0,-1.4601,-1.4549,-1.4541,-1.4518,-1.4431,-1.443,-1.4394,-1.4339,-1.4317,-1.4279,-1.4264,-1.4226,-1.4204,-1.4176,-1.411,-1.4078,-1.4101,-1.4043,-1.4072,-1.4074,-1.4079,-1.408,-1.4205,-1.4072,-1.4072,-1.4072,-1.4072,0,-1.4691,-1.4694,-1.4591,-1.4586,-1.4587,-1.4508,-1.4511,-1.4467,-1.4419,-1.4405,-1.4331,-1.432,-1.4233,-1.4213,-1.4161,-1.4155,-1.4146,-1.4119,-1.4105,-1.4124,-1.4127,-1.4111,-1.4104,-1.4075,-1.4074,-1.4073,-1.4073,0,-1.4818,-1.4749,-1.4735,-1.4654,-1.4634,-1.4638,-1.4569,-1.4562,-1.4512,-1.4495,-1.4486,-1.4408,-1.4379,-1.431,-1.4265,-1.423,-1.4237,-1.4212,-1.4254,-1.4245,-1.4277,-1.4275,-1.4395,-1.4406,-1.4269,-1.427,-1.4271,0,-1.4879,-1.4879,-1.4798,-1.4782,-1.4749,-1.4726,-1.4703,-1.4626,-1.4606,-1.4545,-1.4545,-1.4511,-1.4479,-1.4437,-1.4377,-1.4341,-1.4314,-1.4359,-1.4308,-1.4328,-1.4313,-1.4313,-1.4312,-1.437,-1.4372,-1.4373,-1.4375,0,-1.4995,-1.4961,-1.493,-1.4888,-1.4863,-1.4827,-1.4786,-1.4778,-1.4691,-1.4673,-1.4641,-1.4617,-1.4569,-1.4536,-1.4491,-1.4455,-1.4401,-1.4391,-1.4396,-1.4415,-1.4438,-1.4424,-1.4283,-1.4388,-1.4387,-1.4386,-1.4385,-1.4385,-1.5089,-1.5085,-1.5027,-1.4995,-1.4956,-1.492,-1.4909,-1.4857,-1.4829,-1.4783,-1.474,-1.4714,-1.4661,-1.4594,-1.4562,-1.4541,-1.4513,-1.4521,-1.4522,-1.4524,-1.4532,-1.4443,-1.4533,-1.4533,-1.4532,-1.4532,-1.4531,0,-1.52,-1.5158,-1.513,-1.5075,-1.505,-1.5001,-1.4953,-1.4936,-1.4913,-1.4868,-1.4838,-1.4802,-1.477,-1.4707,-1.4669,-1.4664,-1.4638,-1.4657,-1.4655,-1.4648,-1.456,-1.4559,-1.4678,-1.4678,-1.4678,-1.4678,-1.4678,-1.4678,-1.5254,-1.5243,-1.5202,-1.5172,-1.513,-1.5102,-1.5079,-1.5046,-1.5009,-1.4972,-1.4944,-1.4903,-1.4851,-1.4808,-1.4777,-1.4759,-1.4748,-1.4774,-1.4749,-1.4668,-1.4654,-1.4641,-1.4639,-1.4773,-1.4773,-1.4837,-1.4838,-1.4839]},{"header":{"parameterUnit":"m.s-1","parameterCategory":1,"la1":30.2991,"la2":30.254,"lo1":-89.0895,"lo2":-89.0444,"dy":0.0017,"dx":0.0017,"nx":28,"ny":28,"refTime":"2025-08-08T09:00:00:Z","depth":0,"parameterNumber":3,"parameterNumberName":"V-component_of_WINDS"},"data":[0,0,0,0,0,0,0,0,0,0,0,0,0,0,0,0,0,0,0,0,0,0,0,0,0,0,0,0,0,0,0,0,0,0,0,0,0,0,0,0,0,0,0,0,0,0,0,0,0,0,0,0,0,0,0,0,0,0,-0.9974,-0.9974,0,-0.9998,-0.9999,-0.9999,-0.9997,-0.9996,-0.9996,-0.9995,-1.0021,-1.0023,-1.0024,0,0,0,0,0,0,0,0,0,0,0,0,0,-0.9924,-0.9925,-0.9974,-0.9974,-0.9974,-0.9998,-0.9999,-0.9999,-0.9997,-0.9996,-0.9996,-0.9995,-1.0021,-1.0022,-1.0024,0,0,0,0,0,0,0,0,0,0,0,0,0,-0.9947,-0.9925,-0.9974,-0.9976,-0.9976,-0.9998,-0.9999,-0.9999,-0.9997,-0.9996,-0.9996,-0.9995,-1.0021,-1.0022,-1.0024,-1.0045,0,0,-1.0029,-1.0029,0,0,0,0,0,0,0,0,-0.9945,-0.9948,-0.9975,-0.9976,-0.9976,-0.9994,-0.9991,-1.0015,-0.9997,-0.9989,-0.9995,-0.9995,-1.0013,-1.0015,-1.0021,-1.0046,-1.0047,-1.0029,-1.003,-1.003,-1.0031,0,0,0,0,0,0,0,-0.9944,-0.9947,-0.9983,-0.9976,-0.9976,-0.9975,-0.9978,-0.9995,-1.0004,-0.999,-0.999,-0.9992,-1.0013,-1.0019,-1.0022,-1.0048,-1.0029,-1.003,-1.0031,-1.0032,-1.0091,-1.0091,0,0,0,0,0,0,-0.9942,-0.9946,-0.9983,-0.9984,-0.9959,-0.9977,-0.998,-0.9989,-1.0004,-1.0005,-0.9993,-0.9992,-1.0017,-1.002,-1.0022,-1.0048,-1.003,-1.0032,-1.0033,-1.009,-1.0091,-1.0091,0,0,0,0,0,0,-0.994,-0.9945,-0.9982,-0.9965,-0.997,-0.9978,-0.9988,-0.999,-0.9996,-1.0006,-1.0008,-0.9998,-1.0017,-1.002,-1.0039,-1.0049,-1.0033,-1.0034,-1.0089,-1.009,-1.0091,-1.01,0,0,0,0,0,0,-0.9939,-0.9944,-0.9953,-0.9965,-0.9971,-0.9998,-0.9989,-0.999,-0.9999,-0.9998,-1.0011,-1.0013,-1.0016,-1.0037,-1.0041,-1.0051,-1.0035,-1.0089,-1.009,-1.0091,-1.0098,-1.0101,-1.0102,0,0,0,0,0,-0.9937,-0.9955,-0.9954,-0.9958,-0.9981,-0.9999,-1.0002,-1.0006,-0.9999,-1.0008,-1.0014,-1.0013,-1.0047,-1.0039,-1.0043,-1.0054,-1.0088,-1.0089,-1.0091,-1.0098,-1.01,-1.0102,0,0,0,0,0,0,-0.9945,-0.9957,-0.9955,-0.9977,-0.9987,-0.9998,-1.001,-1.0008,-1.002,-1.0019,-1.0023,-1.0026,-1.0045,-1.0051,-1.0042,-1.0074,-1.0067,-1.0069,-1.007,-1.0073,-1.0075,-1.0073,-1.0037,0,0,0,0,0,-0.9948,-0.9962,-0.9971,-0.999,-0.9995,-1.0001,-1.0009,-1.001,-1.0021,-1.0025,-1.0033,-1.0043,-1.0056,-1.0064,-1.0077,-1.0099,-1.0101,-1.0108,-1.011,-1.0111,-1.0114,-1.0125,-1.0128,-1.0096,-1.0096,-1.0096,0,0,-0.9957,-0.9965,-0.9974,-0.9992,-0.9999,-1.0013,-1.0005,-1.002,-1.0029,-1.0027,-1.0046,-1.0051,-1.0063,-1.0083,-1.0092,-1.0089,-1.0123,-1.0113,-1.0114,-1.0116,-1.0127,-1.013,-1.0133,-1.0097,-1.0097,-1.0097,0,0,-0.998,-0.9988,-1.0004,-1.0011,-1.0022,-1.0026,-1.003,-1.0041,-1.0044,-1.0063,-1.0061,-1.0072,-1.0095,-1.0103,-1.011,-1.0133,-1.0132,-1.0137,-1.0148,-1.0159,-1.0161,-1.0164,-1.0172,-1.0175,-1.0139,-1.0139,-1.0139,0,-0.999,-1.001,-1.0012,-1.0027,-1.0034,-1.0032,-1.0048,-1.0055,-1.007,-1.0075,-1.007,-1.0097,-1.0105,-1.0126,-1.0132,-1.0137,-1.0142,-1.0136,-1.0161,-1.0163,-1.0165,-1.0173,-1.0176,-1.0139,-1.0139,-1.0139,-1.0139,0,-1.0021,-1.0035,-1.0047,-1.006,-1.0069,-1.0084,-1.0088,-1.0096,-1.0096,-1.01,-1.0118,-1.0127,-1.014,-1.0145,-1.0146,-1.0167,-1.0164,-1.016,-1.0152,-1.0169,-1.0177,-1.018,-1.014,-1.014,-1.014,-1.014,0,0,-1.0052,-1.0065,-1.0069,-1.0075,-1.0086,-1.0097,-1.0111,-1.0124,-1.0131,-1.014,-1.0152,-1.017,-1.0166,-1.0174,-1.0175,-1.0184,-1.0202,-1.0179,-1.0179,-1.0183,-1.0225,-1.0229,-1.0232,-1.02,-1.0201,-1.0201,-1.0224,0,-1.0077,-1.0102,-1.0103,-1.0126,-1.0139,-1.0135,-1.0147,-1.0155,-1.0159,-1.017,-1.0173,-1.0186,-1.0179,-1.0184,-1.0193,-1.0198,-1.021,-1.0196,-1.0212,-1.0212,-1.021,-1.0236,-1.0241,-1.0262,-1.0227,-1.0227,-1.0228,0,-1.011,-1.0119,-1.0144,-1.0151,-1.0157,-1.0168,-1.0179,-1.0189,-1.0197,-1.0199,-1.0207,-1.0206,-1.022,-1.021,-1.023,-1.022,-1.0226,-1.0229,-1.023,-1.0232,-1.0222,-1.024,-1.0269,-1.0272,-1.0233,-1.0232,-1.0232,0,-1.013,-1.0149,-1.0166,-1.0171,-1.018,-1.0188,-1.0192,-1.02,-1.0207,-1.0216,-1.0221,-1.0232,-1.0238,-1.0246,-1.0248,-1.0241,-1.0267,-1.0258,-1.0269,-1.0269,-1.0277,-1.0276,-1.0307,-1.0279,-1.0279,-1.0279,-1.0278,0,-1.0158,-1.0173,-1.0175,-1.0185,-1.0202,-1.0202,-1.0218,-1.0222,-1.0228,-1.0239,-1.0236,-1.0246,-1.0247,-1.0258,-1.0259,-1.0275,-1.0277,-1.0279,-1.028,-1.028,-1.028,-1.0285,-1.0284,-1.0279,-1.0279,-1.0279,-1.0279,0,-1.0185,-1.0186,-1.0204,-1.0211,-1.0213,-1.0225,-1.0231,-1.024,-1.0242,-1.0256,-1.0259,-1.0263,-1.0274,-1.0276,-1.0291,-1.0291,-1.031,-1.0308,-1.0307,-1.0308,-1.0319,-1.0318,-1.0355,-1.036,-1.0328,-1.0328,-1.0328,0,-1.0203,-1.0215,-1.0222,-1.0229,-1.0233,-1.0244,-1.0251,-1.0251,-1.0258,-1.0267,-1.0275,-1.0286,-1.0296,-1.0314,-1.0318,-1.0329,-1.0328,-1.034,-1.033,-1.033,-1.0329,-1.0329,-1.033,-1.0343,-1.0343,-1.0343,-1.0344,0,-1.0236,-1.0236,-1.0246,-1.0255,-1.0263,-1.0271,-1.0278,-1.0284,-1.0284,-1.0292,-1.0304,-1.0311,-1.0324,-1.0335,-1.0345,-1.0349,-1.0347,-1.0346,-1.035,-1.0351,-1.035,-1.0351,-1.0314,-1.0346,-1.0346,-1.0346,-1.0346,-1.0345,-1.026,-1.0269,-1.0276,-1.0286,-1.0291,-1.0297,-1.0307,-1.0309,-1.0319,-1.0329,-1.0328,-1.0341,-1.0347,-1.036,-1.0365,-1.0374,-1.0371,-1.0375,-1.0377,-1.0378,-1.0379,-1.0347,-1.0376,-1.0376,-1.0376,-1.0376,-1.0376,0,-1.0293,-1.0296,-1.0306,-1.0315,-1.0323,-1.0318,-1.0326,-1.0333,-1.0344,-1.035,-1.0358,-1.0371,-1.0381,-1.0385,-1.0395,-1.0402,-1.0401,-1.0404,-1.0405,-1.0405,-1.0382,-1.0379,-1.0405,-1.0405,-1.0405,-1.0405,-1.0405,-1.0405,-1.0311,-1.0327,-1.0327,-1.0345,-1.0348,-1.036,-1.0364,-1.037,-1.0374,-1.0388,-1.0397,-1.0398,-1.0403,-1.0413,-1.0422,-1.0423,-1.0427,-1.0431,-1.0432,-1.041,-1.0407,-1.0404,-1.0401,-1.0432,-1.0432,-1.0454,-1.0454,-1.0454]}]]